Current Version              Previous Version:    01  02  03  04  05  06  07  08  09  10  11  12  13  14  15  16  17  18  19  20  21  22  23  24  25  26  27  28  29  30  
   31  32  33  34  35  36  37  38  39  40  41  42  43  44  45  46  47  48  49  50  51  52  53  54  55  56  57  58  59  60  

[Printable]
476
ASUS44 KEWX 200002
RWRTX
SOUTH TEXAS REGIONAL WEATHER ROUNDUP
NATIONAL WEATHER SERVICE AUSTIN/SAN ANTONIO TX
600 PM CST FRI DEC 19 2014

NOTE: "FAIR" INDICATED FEW OR NO CLOUDS BELOW 12,000 FEET WITH NO
SIGNIFICANT WEATHER AND/OR OBSTRUCTIONS TO VISIBILITY.

* - THESE STATIONS ARE NOT NWS OR FAA STATIONS...AND ARE NOT SUBJECT
    TO NWS AND FAA QUALITY CONTROL.

TXZ171-172-183>190-200100-
TEXAS HILL COUNTRY AND EDWARDS PLATEAU

CITY           SKY/WX    TMP DP  RH WIND       PRES   REMARKS
JUNCTION       CLEAR     53  45  74 E7        30.11S
6HR MIN TEMP:  51; 6HR MAX TEMP:  56;

*LLANO         CLOUDY    54  45  71 N7        30.17S
BURNET         CLOUDY    50  45  83 N7        30.15S WCI  47
6HR MIN TEMP:  50; 6HR MAX TEMP:  52;

*HORSESHOE BAY CLOUDY    51  45  78 NE6       30.14R
6HR MIN TEMP:  51; 6HR MAX TEMP:  54;

*KERRVILLE     CLEAR     51  46  83 N5        30.13R
6HR MIN TEMP:  51; 6HR MAX TEMP:  60;

*FREDERICKSBRG CLOUDY    50  45  81 N6        30.12R WCI  48
*ROCKSPRINGS   CLEAR     57  45  62 NE5       30.12R
*BOERNE STAGE  PTCLDY    52  45  76 N7        30.12R
*CASTROVILLE   CLEAR     60  47  64 NE8       30.10R
HONDO          CLEAR     59  49  69 NE8       30.10R
6HR MIN TEMP:  59; 6HR MAX TEMP:  67;

*UVALDE        CLEAR     44  37  76 SE3       30.08S
6HR MIN TEMP:  42; 6HR MAX TEMP:  58;

DEL RIO        CLEAR     65  44  46 N5        30.05R
6HR MIN TEMP:  64; 6HR MAX TEMP:  71;

LAUGHLIN AFB   CLEAR     63  51  65 SE5       30.06R
6HR MIN TEMP:  61; 6HR MAX TEMP:  70;

CARRIZO SPRGS  CLEAR     59  52  77 CALM      30.07R
$$

TXZ173-191>194-202-209-217>225-228-200100-
CENTRAL AND SOUTH CENTRAL TEXAS

CITY           SKY/WX    TMP DP  RH WIND       PRES   REMARKS
GEORGETOWN     CLOUDY    50  46  87 N7        30.13S WCI  47
AUSTIN/BERGSTM CLOUDY    52  47  83 N14       30.12R
6HR MIN TEMP:  52; 6HR MAX TEMP:  57;

AUSTIN/MABRY   CLOUDY    52  47  83 N8        30.14R
6HR MIN TEMP:  52; 6HR MAX TEMP:  57;

*AUSTIN/EXEC   CLOUDY    50  46  87 N14       30.14R WCI  45
*LAGO VISTA    CLOUDY    50  47  88 N7        30.14R WCI  47
6HR MIN TEMP:  50; 6HR MAX TEMP:  54;

SAN MARCOS     CLOUDY    54  46  76 N15       30.11R
NEW BRAUNFELS  CLOUDY    56  47  71 N15       30.10R
6HR MIN TEMP:  56; 6HR MAX TEMP:  64;

RANDOLPH AFB   PTCLDY    55  48  76 N12       30.10R
6HR MIN TEMP:  55; 6HR MAX TEMP:  63;

PT SAN ANTONIO CLEAR     56  48  72 N9        30.08R
6HR MIN TEMP:  56; 6HR MAX TEMP:  64;

SAN ANTONIO    PTCLDY    55  47  74 N12       30.10R
6HR MIN TEMP:  55; 6HR MAX TEMP:  65;

STINSON FIELD  CLEAR     57  48  72 N9        30.08R
6HR MIN TEMP:  57; 6HR MAX TEMP:  66;

*PLEASANTON    CLEAR     59  51  73 N5        30.08R
6HR MIN TEMP:  59; 6HR MAX TEMP:  66;

*LA GRANGE     CLOUDY    56  52  87 N9G16     30.08R
*GIDDINGS      CLOUDY    51  48  89 N13       30.15R
6HR MIN TEMP:  51; 6HR MAX TEMP:  60;

*GONZALES      NOT AVBL
$$

TXZ163>164-176>182-195>201-210>213-226-227-235-200100-
SOUTHEAST TEXAS

CITY           SKY/WX    TMP DP  RH WIND       PRES   REMARKS
COLLEGE STN    CLOUDY    52  49  89 N14       30.11R FOG
6HR MIN TEMP:  52; 6HR MAX TEMP:  59; 6HR PCP: TRACE;

*BRYAN         CLOUDY    51  50  94 N9        30.13R
6HR MIN TEMP:  51; 6HR MAX TEMP:  57;

*CALDWELL      CLOUDY    52  50  93 NW14      30.15R
*CROCKETT      CLOUDY    52  52 100 N8        30.15R
*BRENHAM       CLOUDY    55  53  91 NW12      30.10S
6HR MIN TEMP:  55; 6HR MAX TEMP:  61;

HUNTSVILLE     CLOUDY    52  50  93 VRB6      30.10R FOG
6HR MIN TEMP:  52; 6HR MAX TEMP:  56; 6HR PCP:  0.01;

CONROE         CLOUDY    54  51  90 N6        30.08R
6HR MIN TEMP:  51; 6HR MAX TEMP:  56; 6HR PCP:  0.05;

HOUSTON BUSH   CLOUDY    54  52  93 N12       30.06R
6HR MIN TEMP:  53; 6HR MAX TEMP:  54; 6HR PCP:  0.21;

HOUSTON HOBBY  CLOUDY    54  52  93 N14       30.04R
6HR MIN TEMP:  54; 6HR MAX TEMP:  58; 6HR PCP:  0.37;

*HOUSTON SW AP CLOUDY    47  46  97 N8        30.04R WCI  43
PEARLAND       CLOUDY    57  54  89 NE9       30.05R
6HR MIN TEMP:  54; 6HR MAX TEMP:  60; 6HR PCP:  0.36;

HOUSTON HOOKS  CLOUDY    56  53  90 N9        30.07R
6HR MIN TEMP:  52; 6HR MAX TEMP:  57; 6HR PCP:  0.13;

ELLINGTON FLD  CLOUDY    55  54  94 N12       30.04R
SUGAR LAND     CLOUDY    57  53  86 N14       30.05R
6HR MIN TEMP:  54; 6HR MAX TEMP:  57; 6HR PCP:  0.20;

*HOUSTON EXEC  CLOUDY    57  55  94 N9        30.07R
*CLEVELAND MUN CLOUDY    52  52  98 N3        30.08R
6HR MIN TEMP:  51; 6HR MAX TEMP:  52; 6HR PCP:  0.16;

*WHARTON       CLOUDY    57  54  90 N9        30.06R
6HR MIN TEMP:  53; 6HR MAX TEMP:  58;

*COLUMBUS      CLOUDY    56  55  96 N8        30.07R FOG
$$

TXZ214>216-236>238-200100-
THE UPPER TEXAS COAST

CITY           SKY/WX    TMP DP  RH WIND       PRES   REMARKS
*ORANGE        DRIZZLE   54  53  98 NE10      30.04S
6HR MIN TEMP:  54; 6HR MAX TEMP:  58; 6HR PCP:  0.62;

PORT ARTHUR    LGT RAIN  54  52  93 N10       30.02R
6HR MIN TEMP:  54; 6HR MAX TEMP:  59; 6HR PCP:  1.05;

GALVESTON      LGT RAIN  55  54  96 N16       30.02R
6HR MIN TEMP:  55; 6HR MAX TEMP:  60; 6HR PCP:  0.89;

ANGLETON       CLOUDY    53  53 100 N15       30.02R
6HR MIN TEMP:  53; 6HR MAX TEMP:  59; 6HR PCP:  0.35;

*BAY CITY        N/A     56  56  97 N10       30.03R
PALACIOS       CLOUDY    58  55  90 N14       30.03R
6HR MIN TEMP:  55; 6HR MAX TEMP:  58; 6HR PCP:  0.15;

$$

TXZ229>234-239>247-200100-
TEXAS COASTAL BEND AND RIO GRANDE PLAINS

CITY           SKY/WX    TMP DP  RH WIND       PRES   REMARKS
VICTORIA       CLOUDY    61  56  83 N10       30.06R
6HR MIN TEMP:  55; 6HR MAX TEMP:  62;

*BEEVILLE      CLOUDY    60  55  81 N7        30.06R
6HR MIN TEMP:  56; 6HR MAX TEMP:  63; 6HR PCP:  0.01;

ROCKPORT       CLOUDY    60  55  83 N13       30.05R
6HR MIN TEMP:  55; 6HR MAX TEMP:  60; 6HR PCP:  0.02;

*PORT ARANSAS  CLOUDY    59  55  88 N15       30.04R
*PORT LAVACA   CLOUDY    58  55  91 N12       30.05R
6HR MIN TEMP:  53; 6HR MAX TEMP:  58; 6HR PCP:  0.07;

*INGLESIDE     CLOUDY    59  54  83 N13       30.04R
CORPUS CHRISTI CLOUDY    61  56  83 N12       30.05R
6HR MIN TEMP:  56; 6HR MAX TEMP:  61; 6HR PCP: TRACE;

CORPUS NAS     CLOUDY    60  57  89 N18       30.05R
6HR MIN TEMP:  56; 6HR MAX TEMP:  60; 6HR PCP:  0.01;

*ROBSTOWN      CLOUDY    62  57  85 N12       30.05R
ALICE          CLOUDY    63  56  78 N9        30.05R
6HR MIN TEMP:  56; 6HR MAX TEMP:  65;

KINGSVILLE NAS CLOUDY    62  58  86 N9        30.06R
6HR MIN TEMP:  57; 6HR MAX TEMP:  62; 6HR PCP:  0.01;

COTULLA        PTCLDY    63  50  62 NE6       30.08R
6HR MIN TEMP:  60; 6HR MAX TEMP:  68; 6HR PCP: TRACE;

LAREDO         CLEAR     61  54  77 N5        30.09R
$$

TXZ248>255-200100-
DEEP SOUTH TEXAS

CITY           SKY/WX    TMP DP  RH WIND       PRES   REMARKS
BROWNSVILLE    CLOUDY    61  57  87 N10       30.02R
6HR MIN TEMP:  61; 6HR MAX TEMP:  73; 6HR PCP: TRACE;

PORT ISABEL    CLOUDY    61  56  83 N13       30.02R
6HR MIN TEMP:  60; 6HR MAX TEMP:  73; 6HR PCP: TRACE;

*SOUTH PADRE   MOCLDY    61  57  88 E16G22    30.01R
HARLINGEN      CLOUDY    60  57  89 N15       30.03R
6HR MIN TEMP:  60; 6HR MAX TEMP:  70; 6HR PCP: TRACE;

*HEBBRONVILLE  PTCLDY    62  54  74 N7        30.06R
MCALLEN        CLOUDY    62  56  80 N14       30.05R
6HR MIN TEMP:  62; 6HR MAX TEMP:  68;

*WESLACO       CLOUDY    61  56  83 N8        30.03R
FALFURRIAS     CLOUDY    63  55  77 N8        30.05R
6HR MIN TEMP:  56; 6HR MAX TEMP:  63;

EDINBURG       CLOUDY    63  56  80 N6        30.05R
6HR MIN TEMP:  62; 6HR MAX TEMP:  69;